Flag for U.S.A. Weather past 2 weeks in Redlands, California, U.S.A.

Now
40 °F

Clear.


Feels Like: 40 °F
Forecast: 44 / 71 °F
Wind: 1 mph from Southeast

Location: Riverside / March Air Force Base

Current Time: Feb 1, 2015 at 4:08:53 AM

Latest Report: Feb 1, 2015 at 2:58 AM


Visibility: 10 mi

Pressure: 30.02 "Hg

Humidity: 99%

Dew point: 40 °F

Location of RedlandsLocation

Historic Weather in Redlands — Graph

°F

Redlands temperature yesterday

Maximum temperature yesterday: 65 °F (at 1:58 PM)
Minimum temperature yesterday: 42 °F (at 11:58 PM)
Average temperature yesterday: 53 °F

Past Weeks' High & Low Weather Summary

 TemperatureHumidityPressure
High75 °F (Jan 25, 10:58 AM)100% (Jan 19, 3:58 AM)30.27 "Hg (Jan 19, 3:58 AM)
Low34 °F (Jan 22, 2:58 AM)10% (Jan 23, 11:58 AM)29.83 "Hg (Jan 31, 3:58 AM)
Average55 °F61%30.07 "Hg
* Reported Jan 17 2:58 AM — Feb 1 2:58 AM, Redlands, Weather by CustomWeather, © 2014

Note: Actual official high and low records may vary slightly from our data, if they occured in-between our weather recording intervals... More about our weather records

Advertising

Redlands weather history for previous 24 hours

 ConditionsComfort  
Time TempWeatherWind HumidityBarometerVisibility
2:58 AM
Feb 1
40 °FClear.1 mph99%30.02 "Hg10 mi
1:58 AM41 °FClear.3 mph99%30.02 "Hg10 mi
12:58 AM40 °FClear.No wind99%30.02 "Hg10 mi
11:58 PM
Jan 31
42 °FClear.3 mph94%30.01 "Hg10 mi
10:58 PM50 °FClear.3 mph74%29.99 "Hg10 mi
9:58 PM50 °FClear.8 mph71%29.98 "Hg10 mi
8:58 PM52 °FClear.3 mph66%29.96 "Hg10 mi
7:58 PM51 °FClear.3 mph73%29.96 "Hg10 mi
6:58 PM53 °FClear.2 mph71%29.94 "Hg10 mi
5:58 PM56 °FClear.5 mph64%29.91 "Hg10 mi
4:58 PM63 °FSunny.18 mph45%29.88 "Hg10 mi
3:58 PM65 °FPassing clouds.16 mph45%29.87 "Hg10 mi
2:58 PM65 °FScattered clouds.7 mph55%29.87 "Hg10 mi
1:58 PM65 °FPartly sunny.8 mph53%29.87 "Hg10 mi
12:58 PM63 °FPassing clouds.8 mph65%29.87 "Hg10 mi
11:58 AM61 °FSunny.5 mph82%29.89 "Hg10 mi
10:58 AM56 °FSunny.3 mph100%29.91 "Hg10 mi
9:58 AM52 °FFog.2 mph100%29.93 "Hg5 mi
8:58 AM51 °FFog.3 mph100%29.91 "Hg3 mi
7:58 AM50 °FFog.No wind100%29.88 "Hg3 mi
6:58 AM47 °FFog.No wind100%29.87 "Hg4 mi
5:58 AM47 °FFog.No wind100%29.85 "Hg6 mi
4:58 AM47 °FFog.No wind100%29.84 "Hg5 mi
Weather by CustomWeather, © 2014

See weather overviewHow to use our weather pages